Weather History for Hoonah, AK

Change the Weather History Date:

Monday, October 28, 2013

  Actual Average Record
Temperature  
Mean Temperature 44 °F -  
Max Temperature 46 °F 41 °F 51 °F (2003)
Min Temperature 41 °F 33 °F 21 °F (2012)
Degree Days  
Heating Degree Days 22    
Moisture  
Dew Point 43 °F    
Average Humidity 98    
Maximum Humidity 100    
Minimum Humidity 93    
Precipitation  
Precipitation 0.08 in - - ()
Sea Level Pressure  
Sea Level Pressure 30.14 in    
Wind  
Wind Speed 1 mph (SSW)    
Max Wind Speed 8 mph    
Max Gust Speed -    
Visibility 10 miles    
Events Rain    
Averages and records for this station are not official NWS values.
T = Trace of Precipitation, MM = Missing Value Source: NWS Daily Summary

Daily Weather History Graph

Daily Weather History Graph

Search for Another Location

Airport:

Trip Planner

Search our weather history database for the weather conditions in past years. The results will help you decide how hot, cold, wet, or windy it might be!

Date:

Astronomy

Oct. 28, 2013 Rise Set
Actual Time 8:08 AM AKDT 5:22 PM AKDT
Civil Twilight 7:26 AM AKDT 6:03 PM AKDT
Nautical Twilight 6:39 AM AKDT 6:50 PM AKDT
Astronomical Twilight 5:54 AM AKDT 7:35 PM AKDT
Moon 12:54 AM AKDT (10/28) 3:14 PM AKDT (10/28)
Length of Visible Light 10h 37m
Length of Day
9h 14m
Waning Crescent, 33% of the Moon is Illuminated
Oct 28
Waning Crescent
Nov 3
New
Nov 9
First Quarter
Nov 17
Full
Nov 25
Last Quarter

Hourly Weather History & Observations

Time (AKDT) Temp. Windchill Dew Point Humidity Pressure Visibility Wind Dir Wind Speed Gust Speed Precip Events Conditions
12:56 AM 43.0 °F - 43.0 °F 100% 30.40 in 10.0 mi Calm Calm - N/A   Overcast
1:56 AM 43.0 °F - 43.0 °F 100% 30.40 in 10.0 mi Calm Calm - N/A   Overcast
2:56 AM 43.9 °F - 43.0 °F 97% 30.37 in 10.0 mi Calm Calm - N/A   Overcast
3:56 AM 43.0 °F - 43.0 °F 100% 30.36 in 10.0 mi Calm Calm - N/A   Overcast
4:56 AM 43.0 °F 41.3 °F 43.0 °F 100% 30.34 in 10.0 mi South 3.5 mph - N/A   Overcast
5:56 AM 41.9 °F - 41.9 °F 100% 30.32 in 10.0 mi Calm Calm - N/A   Overcast
6:56 AM 42.8 °F - 42.8 °F 100% 30.29 in 10.0 mi Calm Calm - N/A   Overcast
7:56 AM 41.9 °F - 41.9 °F 100% 30.27 in 10.0 mi Calm Calm - N/A   Mostly Cloudy
8:35 AM 42.8 °F - 42.8 °F 100% 30.26 in 10.0 mi Calm Calm - N/A   Mostly Cloudy
8:56 AM 43.0 °F - 43.0 °F 100% 30.25 in 10.0 mi Calm Calm - N/A   Overcast
9:56 AM 44.6 °F - 42.8 °F 93% 30.22 in 10.0 mi Calm Calm - N/A   Overcast
10:30 AM 44.6 °F - 44.6 °F 100% 30.20 in 10.0 mi Calm Calm - N/A   Overcast
10:56 AM 45.0 °F - 43.9 °F 96% 30.20 in 10.0 mi Calm Calm - N/A   Overcast
11:56 AM 45.0 °F - 43.9 °F 96% 30.17 in 10.0 mi Calm Calm - N/A   Overcast
12:56 PM 45.0 °F - 43.9 °F 96% 30.16 in 10.0 mi Calm Calm - N/A   Overcast
1:56 PM 45.9 °F 41.7 °F 43.9 °F 93% 30.12 in 10.0 mi East 8.1 mph - N/A   Overcast
2:31 PM 46.4 °F 44.3 °F 44.6 °F 93% 30.09 in 10.0 mi South 4.6 mph - N/A   Overcast
2:56 PM 45.9 °F 44.6 °F 45.0 °F 97% 30.09 in 10.0 mi WNW 3.5 mph - N/A   Overcast
3:56 PM 45.0 °F 43.5 °F 43.9 °F 96% 30.04 in 10.0 mi SE 3.5 mph - N/A   Overcast
4:56 PM 45.9 °F - 45.0 °F 97% 30.00 in 10.0 mi Calm Calm - N/A   Overcast
5:56 PM 43.9 °F 42.3 °F 43.9 °F 100% 29.96 in 10.0 mi NW 3.5 mph - N/A   Mostly Cloudy
6:56 PM 43.9 °F - 43.9 °F 100% 29.93 in 10.0 mi Calm Calm - N/A   Overcast
7:56 PM 43.9 °F - 43.9 °F 100% 29.90 in 10.0 mi Calm Calm - N/A   Mostly Cloudy
8:56 PM 43.0 °F - 43.0 °F 100% 29.86 in 10.0 mi Calm Calm - 0.00 in   Mostly Cloudy
9:56 PM 43.9 °F - 43.0 °F 97% 29.86 in 8.0 mi Calm Calm - 0.01 in Rain Light Rain
10:56 PM 43.0 °F - 43.0 °F 100% 29.87 in 6.0 mi Calm Calm - 0.03 in Rain Light Rain
11:56 PM 43.9 °F 42.3 °F 43.9 °F 100% 29.85 in 6.0 mi NW 3.5 mph - 0.04 in Rain Light Rain